Location: Beaufort-Blavincourt
(50.2795°N, 2.4974°E)
Time: 01:02:37
(UTC+00:00)

Daily predictions for brighter satellites

Satellite Brightness Start Highest point End
(mag) Time Altitude Azimuth Time Altitude Azimuth Time Altitude Azimuth
ATLAS CENTAUR R/B 3.8 00:07:30 11° SW 00:13:10 88° SE 00:29:12 10° ENE
Cosmos 1825 3.6 00:13:02 20° SE 00:14:44 28° E 00:18:00 10° NNE
Cosmos 1812 Rocket 4.2 00:13:22 10° NNW 00:17:29 42° W 00:19:25 26° SW
Cosmos 990 Rocket 4.0 00:13:52 10° NNW 00:19:06 86° ENE 00:22:37 21° SSE
Cosmos 1408 2.9 00:19:18 32° SSE 00:20:44 56° E 00:24:22 10° NNE
SL-16 R/B 2.4 00:19:56 19° SW 00:24:01 71° WNW 00:29:44 10° NNE
Cosmos 1656 Rocket 4.0 00:19:00 10° NNW 00:24:42 66° ENE 00:30:16 10° SE
Cosmos 405 Rocket 3.4 00:23:36 26° SSE 00:25:08 40° E 00:28:37 10° NNE
Cosmos 2221 3.7 00:21:09 10° N 00:25:10 37° ENE 00:28:24 14° SE
Cosmos 2058 4.2 00:24:22 19° SE 00:26:34 31° E 00:30:12 10° NNE
USA 229 DEB 3.7 00:22:35 23° SSW 00:26:36 60° SE 00:33:21 10° NE
USA 229 3.8 00:22:43 23° SSW 00:26:43 59° SE 00:33:27 10° NE
X-37B 2.5 00:28:47 17° ESE 00:28:47 17° ESE 00:29:50 10° ESE
Cosmos 2237 Rocket 3.7 00:22:22 10° WSW 00:27:21 31° NW 00:32:22 10° NNE
Cosmos 1898 Rocket 3.5 00:27:08 10° NNW 00:32:25 88° ENE 00:36:10 19° SSE
Cosmos 1937 Rocket 3.8 00:27:22 10° NNW 00:32:42 68° ENE 00:37:19 14° SE
Cosmos 2369 Rocket 2.2 00:29:07 10° NNW 00:34:51 75° WSW 00:38:58 19° SSE
NOSS 8 (F) 4.1 00:33:59 40° SSW 00:34:55 70° SE 00:37:52 10° NE
NOSS 3-1 (C) 3.3 00:31:11 19° SW 00:35:14 88° NW 00:41:46 10° NE
YAOGAN 11 4.2 00:35:34 21° SSE 00:38:28 75° ENE 00:43:00 10° NNW
SJ 16-02 2.5 00:34:45 10° NW 00:38:29 28° W 00:40:01 22° SW
Cosmos 1356 3.3 00:37:29 36° S 00:38:45 87° E 00:42:09 10° NNE
FALCON 9 DEB 3.9 00:35:42 10° WNW 00:38:46 49° N 00:41:50 10° E
CREW DRAGON DEMO-1 DEB 3.3 00:40:05 32° ESE 00:40:05 32° ESE 00:41:46 10° E
GP-B 4.2 00:35:26 10° NNW 00:39:28 35° W 00:41:51 20° SW
NOSS 2-3 (E) 3.6 00:42:32 23° SW 00:45:12 85° NW 00:50:15 10° NE
USA 215 3.7 00:39:31 10° ENE 00:45:59 66° NNW 00:52:28 10° W
NOSS 3-1 (A) 3.3 00:42:41 23° SSW 00:46:12 70° SE 00:52:36 10° NE
Cosmos 1825 Rocket 3.9 00:45:41 25° SSW 00:48:07 58° WNW 00:52:32 10° N
Cosmos 2263 4.1 00:42:48 10° NNW 00:48:32 79° WSW 00:53:06 16° SSE
ATLAS 5 CENTAUR R/B 3.4 00:48:04 12° SE 00:49:39 15° ESE 00:52:05 10° ENE
CZ-4 R/B 4.0 00:46:05 10° NNE 00:50:44 63° ESE 00:53:33 23° S
Helios 1B rocket 4.4 00:48:08 10° NE 00:51:14 20° E 00:54:08 11° SE
Cosmos 1932 4.4 00:47:39 10° NW 00:53:53 72° SW 01:00:01 10° SSE
Meteor 2-2 Rocket 4.4 00:49:23 10° NNW 00:55:29 88° WSW 01:00:07 18° S
Cosmos 1633 4.4 00:53:22 13° SE 00:55:36 23° E 00:58:26 10° NE
FALCON 9 DEB 3.5 00:52:52 10° WNW 00:55:56 56° N 00:58:58 10° E
CZ-3B R/B 3.5 00:44:54 10° W 00:56:38 57° N 01:00:05 10° E
Cosmos 1606 3.4 00:57:33 10° N 01:01:20 51° ENE 01:04:12 16° SSE
NOSS 8 (H) 4.0 01:00:24 34° SSW 01:01:34 75° SE 01:04:32 10° NE
Helios 1A 2.9 01:00:06 24° S 01:02:34 72° WSW 01:06:47 10° NNW
FALCON 9 DEB 3.6 00:59:37 10° WNW 01:02:41 54° N 01:05:46 10° E
Cosmos 468 Rocket 4.0 01:00:57 22° SSW 01:04:20 80° WNW 01:09:36 10° NNE
FALCON 9 DEB 3.5 01:03:06 10° WNW 01:06:11 59° NNE 01:09:15 10° E
SL-16 R/B 2.8 01:00:17 10° SSE 01:06:26 68° ENE 01:12:34 10° NNW
Cosmos 372 Rocket 4.1 01:02:25 10° NNW 01:07:42 77° ENE 01:12:57 10° SSE
USA 305 4.2 01:10:31 21° S 01:12:04 26° SE 01:15:37 10° E
USA 290 4.0 01:11:15 16° SE 01:12:51 22° ESE 01:15:27 10° NE
Cosmos 1953 Rocket 4.1 01:10:29 22° SW 01:13:04 48° WNW 01:17:22 10° N
Lacrosse 4 Rocket 1.9 01:09:50 10° NNW 01:13:55 59° NE 01:17:55 10° SE
Cosmos 1092 Rocket 4.4 01:11:05 15° SSE 01:16:10 57° E 01:22:11 10° NNE
Cosmos 2098 Rocket 3.3 01:15:08 20° S 01:18:58 84° E 01:23:19 10° N
Cosmos 1763 Rocket 3.7 01:15:44 19° SW 01:19:18 63° WNW 01:24:26 10° NNE
BREEZE-M R/B 3.9 01:18:11 19° S 01:19:29 24° SE 01:23:13 10° E
Resurs 1-4 Rocket 2.5 01:15:00 10° NNE 01:20:16 58° ESE 01:24:23 16° S
Cosmos 1437 Rocket 3.1 01:16:34 10° NNW 01:20:20 47° W 01:22:19 24° SSW
USA 267 4.3 01:19:19 19° SSW 01:21:52 23° SW 01:26:55 10° WNW
Cosmos 1892 4.3 01:21:02 16° WSW 01:23:18 26° WNW 01:26:35 10° NNW
SL-4 R/B 2.0 01:21:26 10° W 01:25:13 69° N 01:28:46 10° E
NOSS 2-3 (D) 4.4 01:22:26 12° WSW 01:26:18 50° NW 01:31:22 10° NE
Cosmos 1943 Rocket 3.8 01:23:57 10° WNW 01:27:22 17° W 01:29:31 14° SW
Cosmos 1842 Rocket 3.8 01:26:10 10° NNW 01:30:25 53° W 01:33:14 20° SSW
NPP 4.1 01:26:06 10° NNE 01:31:26 58° ESE 01:35:57 14° S
ADEOS II 3.3 01:26:55 10° NNE 01:31:47 36° E 01:36:36 10° SSE
NOSS 2-2 (D) 4.2 01:30:21 19° S 01:32:08 31° ESE 01:35:25 10° ENE
Lacrosse 5 rocket 2.7 01:30:40 10° NW 01:34:01 36° NNE 01:37:25 10° E
USA 306 3.7 01:32:05 20° SSW 01:34:20 35° SE 01:38:13 10° ENE
Cosmos 921 Rocket 2.9 01:32:38 20° SSW 01:35:28 77° ESE 01:39:39 10° NNE
Exosat Rocket 4.1 01:30:27 15° SW 01:35:36 60° WNW 01:40:42 10° NNE
FALCON 9 DEB 3.2 01:32:18 10° WNW 01:35:37 49° SSW 01:38:54 10° SE
Cosmos 1943 3.3 01:33:25 17° SW 01:37:47 73° WNW 01:43:28 10° NNE
CZ-2D R/B 2.1 01:33:46 10° NNE 01:39:01 79° ESE 01:43:15 16° S
MOZ.5/SAFIR/RUBIN 5/SL-8 4.4 01:38:05 18° SSW 01:41:10 41° W 01:45:42 10° NNW
IDEFIX/ARIANE 42P 4.3 01:41:37 10° NE 01:46:04 27° E 01:50:29 10° SSE
Cosmos 1603 4.0 01:41:52 15° SW 01:46:32 62° WNW 01:52:10 10° NNE
Cosmos 2151 3.3 01:44:56 14° S 01:48:28 63° E 01:52:38 10° NNE
Cosmos 1825 3.7 01:47:48 14° WSW 01:50:11 25° WNW 01:53:24 10° NNW
AQUA 4.0 01:46:19 10° NNE 01:51:06 69° ESE 01:55:17 13° S
Cosmos 1076 Rocket 3.5 01:49:45 17° SSW 01:52:55 69° WNW 01:57:10 10° N
Cosmos 1437 2.8 01:51:38 10° NNW 01:54:19 42° W 01:55:51 21° SSW
Cosmos 1242 Rocket 3.6 01:54:48 10° NNW 01:57:58 30° W 02:00:05 17° SW
Cosmos 540 Rocket 3.9 01:55:00 14° SW 01:59:11 52° WNW 02:04:13 10° NNE
Cosmos 2221 3.8 01:59:02 10° NNW 02:02:33 25° W 02:05:13 14° SW
X-37B 1.6 02:01:04 14° WSW 02:03:15 27° S 02:06:00 10° SE
Cosmos 2058 4.3 02:00:33 13° SW 02:03:28 27° WNW 02:07:00 10° N
BREEZE-M DEB (TANK) 1.2 02:03:07 10° W 02:05:43 64° S 02:08:03 10° ESE
IRS-1D 4.1 02:00:48 10° NNE 02:05:51 53° E 02:10:46 10° S
Cosmos 841 Rocket 3.9 02:03:07 14° SW 02:07:30 52° WNW 02:12:33 10° NNE
SL-16 R/B 4.3 02:05:09 10° W 02:09:11 20° NW 02:13:15 10° N
Cosmos 1553 Rocket 4.1 02:03:02 10° N 02:09:24 84° E 02:15:36 10° S
NOSS 2-2 (E) 3.0 02:08:02 15° SW 02:10:49 89° NW 02:14:47 10° NE
Cosmos 2292 Rocket 3.0 02:09:53 11° S 02:12:38 59° E 02:15:38 10° NNE
CREW DRAGON DEMO-1 DEB 2.6 02:10:38 10° W 02:13:04 63° N 02:15:30 10° ENE
FALCON 9 DEB 2.7 02:11:29 10° WNW 02:14:37 77° SSW 02:17:45 10° ESE
S3M 4.4 02:09:17 10° N 02:15:26 66° ENE 02:21:36 10° SSE
Cosmos 1782 3.0 02:12:03 10° N 02:16:05 75° E 02:20:05 10° SSE
Cosmos 2369 Rocket 4.0 02:15:12 10° WNW 02:17:53 14° W 02:20:34 10° SW
USA 307 3.0 02:14:12 13° SW 02:17:55 61° SSE 02:22:07 10° ENE
Cosmos 1271 Rocket 3.4 02:14:18 10° N 02:17:59 52° ENE 02:21:39 10° SSE
USA 281 3.4 02:12:20 10° SE 02:18:55 79° ENE 02:25:31 10° NNW
Cosmos 2026 Rocket 4.2 02:16:00 11° SSW 02:21:57 64° WNW 02:28:18 10° N
Aureole 3 Rocket 4.2 02:21:00 10° NW 02:24:24 28° W 02:28:38 10° SSW
NOSS 2-2 (C) 3.0 02:21:26 13° SW 02:24:30 85° NW 02:28:23 10° NE
CZ-4C R/B 3.4 02:22:41 10° SSE 02:26:05 65° ENE 02:29:34 10° N
Helios 1B rocket 3.0 02:22:46 10° N 02:26:42 45° WNW 02:30:26 11° SW
ERBS 3.9 02:24:41 10° S 02:27:15 22° SE 02:29:51 10° E
USA 215 4.2 02:22:19 10° ENE 02:28:34 50° N 02:34:49 10° WNW
Cosmos 1328 Rocket 3.8 02:25:41 10° N 02:30:04 73° E 02:34:26 10° SSE
Cosmos 1633 3.8 02:27:25 11° SW 02:30:15 27° WNW 02:33:20 10° N
NOSS 3-2 (A) 4.3 02:22:57 10° NW 02:30:16 77° NE 02:38:42 10° SE
SL-19 R/B 4.3 02:26:06 10° N 02:31:19 65° WNW 02:36:40 10° SSW
FALCON 9 DEB 3.1 02:28:32 10° WNW 02:31:31 46° SSW 02:34:29 10° SE
Cosmos 2298 Rocket 4.3 02:27:44 10° NNW 02:32:53 50° WSW 02:38:02 10° S
ATLAS 5 CENTAUR R/B 1.5 02:29:34 11° SW 02:33:28 77° NW 02:38:04 10° NE
USA 308 2.9 02:29:35 10° SW 02:33:50 73° SSE 02:38:05 10° ENE
SeaSat 1 3.6 02:30:43 10° NE 02:35:20 38° ESE 02:39:55 10° S
FALCON 9 DEB 3.0 02:35:22 10° WNW 02:38:24 51° SSW 02:41:26 10° SE
FALCON 9 DEB 3.2 02:38:49 10° WNW 02:41:46 41° SSW 02:44:42 10° SE
ADEOS Rocket 3.6 02:34:57 10° S 02:41:59 52° W 02:48:24 10° NNW
Cosmos 1933 4.2 02:39:29 10° NNW 02:43:11 33° W 02:46:52 10° SSW
Cosmos 2150 Rocket 4.4 02:39:30 10° NW 02:44:24 43° WSW 02:49:21 10° S
USA 290 3.7 02:44:24 10° WSW 02:47:11 26° WNW 02:49:59 10° N
Cosmos 1833 Rocket 4.4 02:43:44 10° SSE 02:48:29 28° ESE 02:53:13 10° NE
Meteor 1-28 Rocket 3.8 02:46:55 10° SSW 02:50:30 39° W 02:54:07 10° NNW
SL-16 R/B 3.7 02:45:34 10° SW 02:50:33 25° W 02:55:34 10° NW
USA 305 2.9 02:47:23 10° WSW 02:51:39 88° NNW 02:55:56 10° ENE
Lacrosse 4 Rocket 2.9 02:49:22 10° WNW 02:52:09 18° WSW 02:54:55 10° SSW
Cosmos 1125 Rocket 3.9 02:47:19 10° NW 02:52:19 45° WSW 02:57:19 10° S
Cosmos 1151 Rocket 3.2 02:49:31 10° NNW 02:53:41 51° W 02:57:48 10° S
Cosmos 2266 Rocket 4.1 02:51:32 10° S 02:57:38 82° E 03:03:42 10° N
